MEASAT-3B

Last updated on Sun Jun 21 2026 00:03:06 GMT+0000 (Coordinated Universal Time)

1 40147U 14054B 26171.33878891 -.00000247 00000+0 00000+0 0 9996 2 40147 0.0309 28.9853 0002872 40.5543 52.4961 1.00277376 42944
UTC large
Height (km)
Speed (km/s)
/
Latitude / Longitude
Inclination (degrees)
Orbital Period (minutes)
Azimuth
Elevation
Range (km)
Doppler Factor

Next 0 passes for location: London (51.5072 / 0.1276)

No passes found over London.
MEASAT-3B